CW8078 Weather Reports


time (UTC)temp
C
wind
direction
speed
KPH
gust
KPH
rain 1hr
cm
rain 24hr
cm
rain mn
cm
humidity
%
barometer
mb
20260905171304 35 5 0.0 0.0 0.00 0.00 0.00 55 1011.4
20260905170804 35 21 0.0 0.0 0.00 0.00 0.00 52 1011.4
20260905170307 35 8 0.0 0.0 0.00 0.00 0.00 56 1011.4
20260905164804 34 331 0.0 0.0 0.00 0.00 0.00 59 1011.5
20260905164304 33 11 0.0 0.0 0.00 0.00 0.00 58 1011.5
20260905163804 33 11 0.0 0.0 0.00 0.00 0.00 62 1011.5
20260905163303 33 11 0.0 0.0 0.00 0.00 0.00 61 1011.5
20260905161803 32 313 0.0 0.0 0.00 0.00 0.00 63 1011.6
20260905161304 32 335 0.0 0.0 0.00 0.00 0.00 63 1011.7
20260905160804 32 335 0.0 0.0 0.00 0.00 0.00 62 1011.7
20260905160304 31 319 0.0 0.0 0.00 0.00 0.00 63 1011.7
20260905154803 31 196 0.0 0.0 0.00 0.00 0.00 68 1011.8
20260905154302 31 180 0.0 0.0 0.00 0.00 0.00 65 1011.7
20260905153302 30 179 0.0 0.0 0.00 0.00 0.00 67 1011.7
20260905151802 30 237 0.0 0.0 0.00 0.00 0.00 70 1011.7
20260905151302 30 236 0.0 0.0 0.00 0.00 0.00 70 1011.6
20260905150802 30 223 0.0 0.0 0.00 0.00 0.00 70 1011.6
20260905150302 30 222 0.0 0.0 0.00 0.00 0.00 70 1011.6
20260905144801 28 212 0.0 0.0 0.00 0.00 0.00 71 1011.5
20260905144302 28 212 0.0 0.0 0.00 0.00 0.00 73 1011.5
20260905143802 28 212 0.0 0.0 0.00 0.00 0.00 75 1011.4
20260905143302 28 210 0.0 0.0 0.00 0.00 0.00 75 1011.3
20260905141802 27 146 0.0 1.6 0.00 0.00 0.00 77 1011.2
20260905141302 27 157 0.0 0.0 0.00 0.00 0.00 78 1011.3
20260905140801 27 157 0.0 0.0 0.00 0.00 0.00 79 1011.4
20260905140301 26 157 0.0 0.0 0.00 0.00 0.00 80 1011.4
20260905134802 26 157 0.0 0.0 0.00 0.00 0.00 82 1011.4
20260905134302 26 157 0.0 0.0 0.00 0.00 0.00 83 1011.4
20260905133802 26 157 0.0 0.0 0.00 0.00 0.00 82 1011.4
20260905133302 25 157 0.0 0.0 0.00 0.00 0.00 83 1011.4
20260905131802 25 157 0.0 0.0 0.00 0.00 0.00 86 1011.2
20260905131302 25 157 0.0 0.0 0.00 0.00 0.00 86 1011.2
20260905130802 25 157 0.0 0.0 0.00 0.00 0.00 87 1011.3
20260905130302 24 157 0.0 0.0 0.00 0.00 0.00 87 1011.2
20260905124802 23 157 0.0 0.0 0.00 0.00 0.00 89 1011.1
20260905124301 23 157 0.0 0.0 0.00 0.00 0.00 89 1011.1
20260905123801 23 157 0.0 0.0 0.00 0.00 0.00 89 1011.1
20260905123302 23 157 0.0 0.0 0.00 0.00 0.00 89 1011.0
20260905121802 23 157 0.0 0.0 0.00 0.00 0.00 89 1010.8
20260905120802 23 157 0.0 0.0 0.00 0.00 0.00 90 1010.9
20260905120302 23 157 0.0 0.0 0.00 0.00 0.00 90 1010.7
20260905114802 23 157 0.0 0.0 0.00 0.00 0.00 90 1010.6
20260905114302 23 157 0.0 0.0 0.00 0.00 0.00 90 1010.6
20260905113801 23 157 0.0 0.0 0.00 0.00 0.00 90 1010.6
20260905113302 23 157 0.0 0.0 0.00 0.00 0.00 90 1010.5
20260905111802 23 157 0.0 0.0 0.00 0.00 0.00 90 1010.5
20260905111302 23 157 0.0 0.0 0.00 0.00 0.00 90 1010.5
20260905110802 23 157 0.0 0.0 0.00 0.00 0.00 90 1010.4
20260905110302 23 157 0.0 0.0 0.00 0.00 0.00 90 1010.3
20260905104802 23 157 0.0 0.0 0.00 0.00 0.00 90 1010.1
20260905104301 23 157 0.0 0.0 0.00 0.00 0.00 90 1010.1
20260905103802 23 157 0.0 0.0 0.00 0.00 0.00 90 1010.1
20260905103302 23 157 0.0 0.0 0.00 0.00 0.00 90 1010.1
20260905101802 23 157 0.0 0.0 0.00 0.00 0.00 89 1010.2
20260905101302 23 157 0.0 0.0 0.00 0.00 0.00 89 1010.3
20260905100802 23 157 0.0 0.0 0.00 0.00 0.00 89 1010.3
20260905094802 23 157 0.0 0.0 0.00 0.00 0.00 89 1010.4
20260905094302 23 157 0.0 0.0 0.00 0.00 0.00 89 1010.4
20260905093802 23 157 0.0 0.0 0.00 0.00 0.00 89 1010.3
20260905093302 23 157 0.0 0.0 0.00 0.00 0.00 89 1010.3
20260905091802 24 157 0.0 0.0 0.00 0.00 0.00 88 1010.2
20260905091302 24 157 0.0 0.0 0.00 0.00 0.00 88 1010.2
20260905090802 24 157 0.0 0.0 0.00 0.00 0.00 88 1010.2
20260905090302 24 157 0.0 0.0 0.00 0.00 0.00 88 1010.2
20260905084802 24 157 0.0 0.0 0.00 0.00 0.00 87 1010.3
20260905084302 24 157 0.0 0.0 0.00 0.00 0.00 87 1010.2
20260905083802 24 157 0.0 0.0 0.00 0.00 0.00 87 1010.2
20260905083302 24 157 0.0 0.0 0.00 0.00 0.00 87 1010.2
20260905081802 24 157 0.0 0.0 0.00 0.00 0.00 87 1010.1
20260905081302 24 157 0.0 0.0 0.00 0.00 0.00 86 1010.1
20260905080802 24 157 0.0 0.0 0.00 0.00 0.00 86 1010.1
20260905080302 24 157 0.0 0.0 0.00 0.00 0.00 86 1010.1
20260905074802 25 157 0.0 0.0 0.00 0.00 0.00 86 1010.0
20260905074303 25 157 0.0 0.0 0.00 0.00 0.00 86 1010.0
20260905073802 25 157 0.0 0.0 0.00 0.00 0.00 86 1009.9
20260905073302 25 157 0.0 0.0 0.00 0.00 0.00 86 1009.9
20260905071802 25 157 0.0 0.0 0.00 0.00 0.00 85 1010.0
20260905071302 25 157 0.0 0.0 0.00 0.00 0.00 85 1010.1
20260905070802 25 157 0.0 0.0 0.00 0.00 0.00 85 1010.1
20260905064802 25 157 0.0 0.0 0.00 0.00 0.00 84 1010.2
20260905064303 25 157 0.0 0.0 0.00 0.00 0.00 85 1010.2
20260905061802 26 157 0.0 0.0 0.00 0.00 0.00 83 1010.2
20260905061302 26 157 0.0 0.0 0.00 0.00 0.00 83 1010.2
20260905060802 26 157 0.0 0.0 0.00 0.00 0.00 83 1010.2
20260905060303 26 157 0.0 0.0 0.00 0.00 0.00 82 1010.2
20260905054802 26 157 0.0 0.0 0.00 0.00 0.00 82 1010.3
20260905054302 26 157 0.0 0.0 0.00 0.00 0.00 82 1010.3
20260905053802 26 157 0.0 0.0 0.00 0.00 0.00 81 1010.3
20260905053302 26 157 0.0 0.0 0.00 0.00 0.00 81 1010.3
20260905051802 26 157 0.0 0.0 0.00 0.00 0.00 81 1010.2
20260905051302 26 157 0.0 0.0 0.00 0.00 0.00 81 1010.3
20260905050802 26 157 0.0 0.0 0.00 0.00 0.00 80 1010.3
20260905050303 26 157 0.0 0.0 0.00 0.00 0.00 80 1010.3
20260905044802 27 157 0.0 0.0 0.00 0.00 0.00 79 1010.3
20260905044302 27 157 0.0 0.0 0.00 0.00 0.00 79 1010.2
20260905043802 27 157 0.0 0.0 0.00 0.00 0.00 78 1010.3
20260905043302 27 157 0.0 0.0 0.00 0.00 0.00 78 1010.2
20260905041802 27 157 0.0 0.0 0.00 0.00 0.00 77 1010.2
20260905040302 27 157 0.0 0.0 0.00 0.00 0.00 75 1010.3
20260905034802 27 157 0.0 0.0 0.00 0.00 0.00 75 1010.3
20260905034302 27 157 0.0 0.0 0.00 0.00 0.00 75 1010.3
20260905033302 27 157 0.0 0.0 0.00 0.00 0.00 76 1010.4
20260905031803 27 150 0.0 0.0 0.00 0.00 0.00 78 1010.5
20260905031302 27 149 0.0 0.0 0.00 0.00 0.00 79 1010.5
20260905030803 27 149 0.0 0.0 0.00 0.00 0.00 78 1010.5
20260905030302 27 149 0.0 0.0 0.00 0.00 0.00 77 1010.5
20260905024802 28 149 0.0 0.0 0.00 0.00 0.00 77 1010.3
20260905024302 28 149 0.0 0.0 0.00 0.00 0.00 77 1010.3
20260905023802 28 149 0.0 0.0 0.00 0.00 0.00 75 1010.3
20260905021303 28 149 0.0 0.0 0.00 0.00 0.00 72 1010.1
20260905020302 28 149 0.0 0.0 0.00 0.00 0.00 72 1010.0
20260905014303 29 149 0.0 0.0 0.00 0.00 0.00 71 1009.7
20260905013803 29 149 0.0 0.0 0.00 0.00 0.00 71 1009.6
20260905013302 29 149 0.0 0.0 0.00 0.00 0.00 71 1009.5
20260905011802 29 149 0.0 0.0 0.00 0.00 0.00 71 1009.3
20260905011302 29 149 0.0 0.0 0.00 0.00 0.00 71 1009.2
20260905010802 29 149 0.0 0.0 0.00 0.00 0.00 72 1009.3
20260905010302 29 149 0.0 0.0 0.00 0.00 0.00 72 1009.3
20260905004802 30 149 0.0 0.0 0.00 0.00 0.00 71 1009.2
20260905004302 30 149 0.0 0.0 0.00 0.00 0.00 70 1009.1
20260905003302 30 149 0.0 0.0 0.00 0.00 0.00 69 1009.1
20260905001802 31 149 0.0 0.0 0.00 0.00 0.00 68 1009.1
20260905001302 31 149 0.0 0.0 0.00 0.00 0.00 66 1009.1
20260905000802 31 149 0.0 0.0 0.00 0.00 0.00 65 1009.1
20260905000303 31 149 0.0 0.0 0.00 0.00 0.00 64 1009.2
20260904234802 32 149 0.0 0.0 0.00 0.00 0.00 62 1009.2
20260904233802 32 149 0.0 0.0 0.00 0.00 0.00 59 1009.1
20260904233302 32 149 0.0 0.0 0.00 0.00 0.00 60 1009.1
20260904231803 33 149 0.0 0.0 0.00 0.00 0.00 58 1009.2
20260904231302 33 149 0.0 0.0 0.00 0.00 0.00 57 1009.2
20260904230803 33 149 0.0 0.0 0.00 0.00 0.00 56 1009.2
20260904230302 33 149 0.0 0.0 0.00 0.00 0.00 54 1009.3
20260904224802 34 149 0.0 0.0 0.00 0.00 0.00 52 1009.3
20260904224302 35 149 0.0 0.0 0.00 0.00 0.00 51 1009.3
20260904223802 35 149 0.0 0.0 0.00 0.00 0.00 49 1009.3
20260904223303 35 167 0.0 0.0 0.00 0.00 0.00 52 1009.3
20260904221803 35 136 0.0 0.0 0.00 0.00 0.00 50 1009.2
20260904221303 35 136 0.0 0.0 0.00 0.00 0.00 49 1009.3
20260904220303 35 153 0.0 0.0 0.00 0.00 0.00 49 1009.3
20260904214802 36 132 0.0 0.0 0.00 0.00 0.00 46 1009.5
20260904214303 36 132 0.0 0.0 0.00 0.00 0.00 46 1009.5
20260904213803 36 105 0.0 0.0 0.00 0.00 0.00 46 1009.6
20260904211803 36 220 0.0 0.0 0.00 0.00 0.00 45 1009.8
20260904211302 36 220 0.0 0.0 0.00 0.00 0.00 45 1009.8
20260904210802 36 220 0.0 0.0 0.00 0.00 0.00 44 1009.9
20260904210302 36 204 0.0 1.6 0.00 0.00 0.00 43 1010.0
20260904204803 36 163 0.0 0.0 0.00 0.00 0.00 43 1010.1
20260904204303 36 134 0.0 0.0 0.00 0.00 0.00 43 1010.2
20260904203803 36 136 0.0 0.0 0.00 0.00 0.00 43 1010.2
20260904203303 36 146 0.0 0.0 0.00 0.00 0.00 42 1010.3
20260904201803 36 150 0.0 0.0 0.00 0.00 0.00 43 1010.5
20260904201302 37 86 0.0 0.0 0.00 0.00 0.00 44 1010.5
20260904200802 37 192 0.0 0.0 0.00 0.00 0.00 43 1010.6
20260904200302 37 165 0.0 0.0 0.00 0.00 0.00 43 1010.7
20260904194802 37 175 0.0 0.0 0.00 0.00 0.00 44 1011.0
20260904193802 37 119 0.0 0.0 0.00 0.00 0.00 43 1010.9
20260904191803 37 205 0.0 0.0 0.00 0.00 0.00 43 1011.1
20260904190802 37 326 0.0 0.0 0.00 0.00 0.00 45 1011.1
20260904190302 37 248 0.0 0.0 0.00 0.00 0.00 47 1011.2
20260904184803 36 0 0.0 0.0 0.00 0.00 0.00 46 1011.3
20260904184303 36 116 0.0 0.0 0.00 0.00 0.00 47 1011.4
20260904183803 36 94 0.0 0.0 0.00 0.00 0.00 50 1011.4
20260904183302 36 6 0.0 0.0 0.00 0.00 0.00 47 1011.5
20260904181803 36 179 0.0 0.0 0.00 0.00 0.00 45 1011.6
20260904180803 37 232 0.0 0.0 0.00 0.00 0.00 47 1011.7
20260904180303 36 225 0.0 0.0 0.00 0.00 0.00 48 1011.8
20260904174802 36 142 0.0 0.0 0.00 0.00 0.00 50 1012.0
20260904174302 36 171 0.0 0.0 0.00 0.00 0.00 49 1012.0
20260904173802 36 329 0.0 0.0 0.00 0.00 0.00 52 1012.0
20260904173303 36 329 0.0 0.0 0.00 0.00 0.00 50 1012.1
20260904171803 35 229 0.0 0.0 0.00 0.00 0.00 52 1012.3